This demonstration page uses our WeatherBlox Daily Observations layout. Learn more.

Left ArrowRight Arrow

38.20091, -84.87328

Hourly Observations for August 30, 2017

Temp ( °F °C ) Dew Point ( °F °C ) Humidity (%) Winds ( mph kmh ) Pressure ( in mb ) Visibility ( mi km ) Precip ( " mm )
12:42 am 00:42 Clear with Mist and Fog 66 18.9 63 17.2 90 90 Calm 30.00 1016 2 3 0.00 0.00
12:47 am 00:47 Clear with Mist and Fog 66 19 63 17 88 88 Calm 30.00 1016 3 5 0.00 0.00
12:53 am 00:53 Clear with Mist and Fog 65 18.3 63 17.2 93 93 Calm 29.98 1015 2 2 0.00 0.00
12:58 am 00:58 Clear with Mist and Fog 65 18.3 63 17.2 93 93 Calm 30.00 1016 1 1 0.00 0.00
1:04 am 01:04 Clear with Mist and Fog 65 18.3 63 17.2 93 93 Calm 30.00 1016 1 2 0.00 0.00
1:09 am 01:09 Clear with Mist and Fog 65 18.3 63 17.2 93 93 Calm 30.00 1016 3 5 0.00 0.00
1:30 am 01:30 Mostly Clear with Mist and Fog 65 18.3 62 16.7 90 90 NNW 3 6 30.00 1016 2 3 0.00 0.00
1:48 am 01:48 Mostly Clear with Mist and Fog 64 18 63 17 94 94 NNW 3 6 30.00 1016 3 5 0.00 0.00
1:51 am 01:51 Mostly Clear with Mist and Fog 64 18 63 17 94 94 NNW 3 6 30.00 1016 2 3 0.00 0.00
1:53 am 01:53 Partly Cloudy with Mist and Fog 64 17.8 62 16.7 93 93 NW 3 6 29.97 1015 1 2 0.00 0.00
1:57 am 01:57 Mostly Cloudy with Mist and Fog 64 17.8 62 16.7 93 93 Calm 30.00 1016 1 1 0.00 0.00
2:07 am 02:07 Mostly Clear with Mist and Fog 64 17.8 62 16.7 93 93 Calm 30.00 1016 1 2 0.00 0.00
2:16 am 02:16 Mostly Clear with Mist and Fog 64 17.8 62 16.7 93 93 Calm 29.97 1015 3 4 0.00 0.00
2:23 am 02:23 Partly Cloudy with Mist and Fog 64 17.8 62 16.7 93 93 Calm 29.97 1015 3 5 0.00 0.00
2:44 am 02:44 Mostly Clear with Mist and Fog 63 17.2 61 16.1 93 93 Calm 29.97 1015 2 3 0.00 0.00
2:49 am 02:49 Mostly Cloudy with Mist and Fog 63 17 61 16 94 94 Calm 30.00 1016 1 1 0.00 0.00
2:53 am 02:53 Mostly Cloudy with Fog 63 17.2 61 16.1 93 93 Calm 29.97 1015 1 1 0.00 0.00
3:53 am 03:53 Mostly Cloudy with Fog 63 17.2 60 15.6 90 90 Calm 29.98 1015 0 0 0.00 0.00
4:53 am 04:53 Mostly Cloudy with Fog 63 17.2 61 16.1 93 93 Calm 29.99 1016 0 0 0.00 0.00
5:53 am 05:53 Mostly Cloudy with Fog 64 17.8 62 16.7 93 93 Calm 30.00 1016 5 8 0.00 0.00
6:53 am 06:53 Mostly Cloudy with Fog 63 17.2 61 16.1 93 93 Calm 30.02 1017 0 0 0.00 0.00
7:53 am 07:53 Mostly Cloudy with Fog 63 17.2 61 16.1 93 93 Calm 30.04 1017 5 8 0.00 0.00
8:53 am 08:53 Mostly Cloudy with Fog 65 18.3 63 17.2 93 93 Calm 30.04 1017 5 8 0.00 0.00
9:40 am 09:40 Cloudy with Mist and Fog 67 19.4 65 18.3 93 93 SE 3 6 30.06 1018 1 2 0.00 0.00
9:53 am 09:53 Cloudy with Mist and Fog 67 19.4 65 18.3 93 93 Calm 30.06 1018 2 3 0.00 0.00
9:55 am 09:55 Cloudy with Mist and Fog 68 20 65 18.3 90 90 Calm 30.09 1019 3 5 0.00 0.00
10:23 am 10:23 Partly Cloudy 71 21.7 65 18.3 81 81 Calm 30.06 1018 10 16 0.00 0.00
10:53 am 10:53 Sunny 73 22.8 65 18.3 76 76 E 3 6 30.06 1018 10 16 0.00 0.00
11:53 am 11:53 Sunny 76 24.4 63 17.2 64 64 ENE 3 6 30.05 1018 10 16 0.00 0.00
12:53 pm 12:53 Sunny 79 26.1 62 16.7 56 56 Calm 30.04 1017 10 16 0.00 0.00
1:53 pm 13:53 Mostly Sunny 80 26.7 62 16.7 54 54 N 6 9 30.03 1017 10 16 0.00 0.00
2:53 pm 14:53 Sunny 80 26.7 58 14.4 47 47 Calm 30.02 1017 10 16 0.00 0.00
3:53 pm 15:53 Sunny 82 27.8 59 15 46 46 VRB 3 6 30.01 1016 10 16 0.00 0.00
4:53 pm 16:53 Sunny 82 27.8 58 14.4 44 44 NNW 5 7 30.00 1016 10 16 0.00 0.00
5:53 pm 17:53 Sunny 83 28.3 59 15 44 44 NNW 6 9 30.00 1016 10 16 0.00 0.00
6:53 pm 18:53 Sunny 80 26.7 60 15.6 51 51 NW 3 6 30.00 1016 10 16 0.00 0.00
7:53 pm 19:53 Sunny 76 24.4 62 16.7 62 62 Calm 30.00 1016 10 16 0.00 0.00
8:53 pm 20:53 Clear 71 21.7 63 17.2 76 76 Calm 30.01 1016 10 16 0.00 0.00
9:53 pm 21:53 Clear 69 20.6 62 16.7 78 78 Calm 30.02 1017 10 16 0.00 0.00
10:53 pm 22:53 Clear 68 20 62 16.7 81 81 Calm 30.02 1017 10 16 0.00 0.00
11:53 pm 23:53 Clear 67 19.4 62 16.7 84 84 Calm 30.01 1016 10 16 0.00 0.00

Powered by AerisWeather